Weather Service Report


256 
ASUS42 KTBW 221516
RWRFL 
FLORIDA REGIONAL WEATHER ROUNDUP
NATIONAL WEATHER SERVICE TAMPA BAY RUSKIN FL
1000 AM EST WED FEB 22 2017

NOTE: "FAIR" INDICATES FEW OR NO CLOUDS BELOW 12,000 FEET WITH NO
SIGNIFICANT WEATHER AND/OR OBSTRUCTIONS TO VISIBILITY.

FLZ001>010-012>015-112-114-115-221600-
PANHANDLE FLORIDA
  
CITY           SKY/WX    TMP DP  RH WIND       PRES   REMARKS
PENSACOLA      CLOUDY    63  59  87 N12       29.79R                  
PENSACOLA NAS  CLOUDY    62  59  90 N10       29.78R                  
MILTON NAS     CLOUDY    61  59  93 VRB6      29.80                   
CRESTVIEW      CLOUDY    61  58  90 NE8       29.80S                  
DUKE FIELD     DRIZZLE   60  42  53 N8        29.78R FOG              
VALPARAISO     DRIZZLE   61  59  96 N10       29.76F FOG              
MARY ESTHER    CLOUDY    61  59  94 NE15      29.75                   
TRI COUNTY     LGT RAIN  61  61 100 N8        29.78S                  
PANAMA CITY    HVY RAIN  61  59  93 NW10      29.72F FOG              
TYNDALL AFB    HVY RAIN  61  61 100 CALM      29.73S                  
APALACHICOLA   CLOUDY    63  60  90 NW8       29.70S                  

STATION/POSITION SKY/WX   TEMP    WIND        PRES    WAVE   SWELL
                          AIR SEA DIR/SP/G            HT/PER HT/PER
                          (F)     (DEG/KT/KT) (MB)    (FT/S) (FT/S)
30.1N   87.6W              62 68  340/ 14/ 17 1008.5R   3/ 8   3/ 8
28.8N   86.0W              67 70              1006.4R   4/ 7   2/ 7
PANAMA CITY BEAC           60      10/  9/ 11 1007.4F
TOWER C                    64     320/ 16/ 17 1005.7R
28.5N   84.5W              69 69  280/ 10/ 12 1006.0F   5/ 7   5/ 7

$$
FLZ011-016>038-118-127-128-134-139-239-221600-
NORTH FLORIDA
  
CITY           SKY/WX    TMP DP  RH WIND       PRES   REMARKS
MARIANNA       CLOUDY    64  63  96 E10       29.76S                  
TALLAHASSEE    RAIN      65  63  93 E9        29.75S FOG              
PERRY          CLOUDY    68  64  86 SE5       29.76S                  
CROSS CITY     CLOUDY    68  63  83 E10G17    29.74F                  
LAKE CITY      CLOUDY    64  63  94 E8        29.79F                  
GAINESVILLE    LGT RAIN  67  63  87 SE7       29.81F                  
WILLISTON      MOSUNNY   66  66 100 VRB5      29.79F FOG              
PALATKA        FAIR      68  64  88 SE5       29.82S                  
MAYPORT NAS    CLOUDY    69  64  84 E9        29.83F                  
JACKSONVILLE   CLOUDY    69  65  86 E7        29.83F                  
JAX NAS        CLOUDY    70  63  78 SE10      29.83F                  
FERNANDINA BEA PTSUNNY   70  64  83 E8        29.83F                  
ST AUGUSTINE   PTSUNNY   74  64  71 SE13      29.83F                  
PALM COAST     CLOUDY    72  63  73 SE8       29.82F                  

STATION/POSITION SKY/WX   TEMP    WIND        PRES    WAVE   SWELL
                          AIR SEA DIR/SP/G            HT/PER HT/PER
                          (F)     (DEG/KT/KT) (MB)    (FT/S) (FT/S)
SHELL POINT      NOT AVBL
KEATON BEACH               67     110/ 10/ 14 1007.0S
CEDAR KEY                  67     110/ 25/ 28 1006.5F
FERNANDINA                 67 67   90/  4/  8 1011.3R
30.7N   81.3W                 63                N/A     4/ 6
MAYPORT                    69 66  100/  7/  9 1010.5F
31.4N   80.9W              64 62  140/ 16/ 17 1011.6R   4/ 7
ST AUGUSTINE               68 67  140/  9/ 10 1010.5F

$$
FLZ040-043>046-052-053-057-058-063-144-221600-
INTERIOR CENTRAL FLORIDA
  
CITY           SKY/WX    TMP DP  RH WIND       PRES   REMARKS
OCALA          CLOUDY    64  61  88 CALM      29.80F                  
THE VILLAGES     N/A     68  68 100 SE6       29.70F                  
LEESBURG       CLOUDY    69  64  84 E7        29.80F                  
SANFORD        CLOUDY    68  64  87 E10       29.82F                  
ORLANDO EXEC   CLOUDY    69  65  86 E10       29.81F                  
ORLANDO INTL   CLOUDY    70  64  81 E9        29.81F                  
KISSIMMEE      CLOUDY    70  65  84 SE6       29.82S                  
WINTER HAVEN   LGT RAIN  68  63  84 SE8       29.81F                  
LAKELAND       RAIN      64  64 100 SE9G16    29.79F                  
BARTOW         CLOUDY    66  66 100 SE6       29.80S                  
OKEECHOBEE     LGT RAIN  68  63  83 SE8       29.80F                  

$$
FLZ041-047-054-059-064-141-147-221600-
EAST CENTRAL FLORIDA
  
CITY           SKY/WX    TMP DP  RH WIND       PRES   REMARKS
ORMOND BEACH   PTSUNNY   72  63  73 SE9G18    29.82F                  
DAYTONA BEACH  LGT RAIN  71  62  73 SE9       29.82F                  
DELAND         RAIN      66  64  94 SE7       29.83S FOG              
NEW SMYRNA BEA PTSUNNY   72  64  78 SE12G17   29.82F                  
JFK SPACE CTR  DRIZZLE   73  63  68 SE8G18    29.81S                  
TITUSVILLE     LGT RAIN  68  66  94 S12G17    29.83S                  
CAPE CANAVERAL CLOUDY    73  62  68 SE20      29.80F                  
PATRICK AFB    DRIZZLE   72  66  83 SE22G29   29.80F                  
MELBOURNE      LGT RAIN  70  65  84 SE13      29.81F                  
VERO BEACH     RAIN      70  67  90 SE17G25   29.81F FOG              
FT PIERCE      LGT RAIN  71  67  87 S8        29.80S FOG              
STUART         CLOUDY    77  63  61 S14       29.81F                  

STATION/POSITION SKY/WX   TEMP    WIND        PRES    WAVE   SWELL
                          AIR SEA DIR/SP/G            HT/PER HT/PER
                          (F)     (DEG/KT/KT) (MB)    (FT/S) (FT/S)
TRIDENT PIER               72 71  110/  9/ 15 1010.6F
28.4N   80.5W                 71                N/A     5/ 6
27.5N   80.2W                 72                N/A     7/ 7

$$
FLZ050-056-061-142-242-148-248-149-249-151-251-155-255-
160-260-221600-
WEST CENTRAL FLORIDA
  
CITY           SKY/WX    TMP DP  RH WIND       PRES   REMARKS
CRYSTAL RIVER  CLOUDY    66  64  94 SE5       29.76F                  
INVERNESS      CLOUDY    64  64 100 E8        29.78F                  
BROOKSVILLE    LGT RAIN  67  64  90 E17       29.75F                  
CLEARWATER AIR CLOUDY    64  64 100 SE9G17    29.74F                  
ST PETE CLEARW MOSUNNY   68  64  87 SE12G24   29.73F                  
TAMPA INTL     LGT RAIN  67  63  87 SE21G30   29.72F                  
TAMPA EXEC     LGT RAIN  68  63  83 SE13G21   29.76F                  
PLANT CITY     LGT RAIN  68  66  94 SE7       29.79F                  
MACDILL AFB    CLOUDY    66  66 100 E22G28    29.71F                  
PETER O KNIGHT CLOUDY    68  64  88 SE14      29.75F                  
ST PETERSBURG  SUNNY     68  64  88 SE35        N/A                   
SARASOTA       CLOUDY    67  64  90 SE16      29.72R                  
VENICE         PTSUNNY   66  66 100 SE13G20   29.76R                  

STATION/POSITION SKY/WX   TEMP    WIND        PRES    WAVE   SWELL
                          AIR SEA DIR/SP/G            HT/PER HT/PER
                          (F)     (DEG/KT/KT) (MB)    (FT/S) (FT/S)
27.3N   84.2W                 71                N/A     4/ 7
CLEARWATER BEACH           67 75  130/  9/ 15 1007.1F
MIDDLE TAMPA BAY           66     130/ 27/ 34 1005.6F
VENICE                     65 70   80/ 14/ 17 1006.5F

$$
FLZ066-069-070-075>078-162-262-165-265-221600-
SOUTHWEST FLORIDA AND KEYS
  
CITY           SKY/WX    TMP DP  RH WIND       PRES   REMARKS
PUNTA GORDA    LGT RAIN  66  65  96 SE10G22   29.79F                  
FT MYERS       RAIN      67  64  90 SW10G20   29.79R FOG              
SOUTHWEST INTL RAIN      67  65  93 SW6       29.79R FOG              
NAPLES         HVY RAIN  65  64  97 W7        29.79R FOG              
MARCO ISLAND   CLOUDY    66  64  94 SW12      29.79R                  
MARATHON       RAIN      71  68  90 S15G26    29.79S FOG              
KEY WEST NAS   LGT RAIN  66  66 100 SW13      29.78S                  
KEY WEST INTL  HVY RAIN  69  68  96 SW7       29.78F FOG              

STATION/POSITION SKY/WX   TEMP    WIND        PRES    WAVE   SWELL
                          AIR SEA DIR/SP/G            HT/PER HT/PER
                          (F)     (DEG/KT/KT) (MB)    (FT/S) (FT/S)
NAPLES                        72              1008.9R
26.0N   85.6W              65 74  350/ 17/ 27 1007.9R   5/ 6
DRY TORTUGAS               70     330/ 13/ 15 1008.3R
SAND KEY                   69     280/  4/  7 1009.1S
LONG KEY                   74 75  170/ 19/ 22 1008.7F

$$
FLZ067-068-071>074-168-172>174-221600-
SOUTHEAST FLORIDA 
  
CITY           SKY/WX    TMP DP  RH WIND       PRES   REMARKS
W PALM BEACH   CLOUDY    75  60  59 SE23G30   29.82S                  
BOCA RATON     PTSUNNY   75  64  69 SE15G23   29.80F                  
FT LAUDER-EXEC CLOUDY    75  63  66 SE16G28   29.79F                  
FT LAUDERDALE  CLOUDY    75  64  68 SE23G29   29.79S                  
POMPANO BEACH  LGT RAIN  74  65  73 SE25G36   29.80S                  
PEMBROKE PINES CLOUDY    75  63  66 SE18G25   29.81S                  
OPA LOCKA      LGT RAIN  74  65  73 SE21G28   29.79F                  
MIAMI          CLOUDY    71  66  84 SE20G26   29.79F                  
WEST KENDALL   CLOUDY    76  63  64 SE10G21   29.78F                  
HOMESTEAD      LGT RAIN  75  67  76 SE9       29.78S                  

STATION/POSITION SKY/WX   TEMP    WIND        PRES    WAVE   SWELL
                          AIR SEA DIR/SP/G            HT/PER HT/PER
                          (F)     (DEG/KT/KT) (MB)    (FT/S) (FT/S)
PORT EVERGLADES            74     130/ 15/ 23 1009.1R
VIRGINIA KEY               73     120/ 15/ 21 1009.3F
LAKE WORTH                        150/ 22/ 26   N/A
FOWEY ROCKS                74 75  120/ 28/ 30 1009.3F

$$

  

Return to Home page


Western Regional Climate Center, wrcc@dri.edu